EWG134 EDDF-LOWI

Flight info

Callsign EWG134
Flight time N/A
Altitude 29000
Route SULUS7S/18 SULUS Z650 NIKUS M736 RDG/N0461F280 M736 DOSEL/N0454F270 M736 TULSI TULSI3A
Aircraft A320/M-SDE3FGHIRWY/LB1

Departure

Time 2026-05-05 17:21
Airport Frankfurt Main Airport (EDDF)

Arrival

Time N/A
Airport Innsbruck Airport (LOWI)
Time Latitude Longitude Altitude Speed Heading
2026-05-05 16:46 50.04655 8.56808 359 ft 0 kts 294°
2026-05-05 17:04 50.04652 8.56817 357 ft 4 kts 295°
2026-05-05 17:04 50.04642 8.56855 361 ft 4 kts 285°
2026-05-05 17:05 50.04639 8.56896 356 ft 4 kts 260°
2026-05-05 17:05 50.04648 8.56930 361 ft 4 kts 214°
2026-05-05 17:05 50.04658 8.56939 357 ft 1 kts 203°
2026-05-05 17:05 50.04659 8.56940 357 ft 0 kts 203°
2026-05-05 17:08 50.04658 8.56939 357 ft 0 kts 203°
2026-05-05 17:08 50.04644 8.56930 361 ft 6 kts 201°
2026-05-05 17:08 50.04580 8.56901 350 ft 13 kts 194°
2026-05-05 17:08 50.04482 8.56862 348 ft 15 kts 207°
2026-05-05 17:09 50.04428 8.56725 356 ft 15 kts 248°
2026-05-05 17:09 50.04390 8.56570 355 ft 16 kts 249°
2026-05-05 17:09 50.04349 8.56392 353 ft 19 kts 250°
2026-05-05 17:09 50.04300 8.56188 353 ft 22 kts 250°
2026-05-05 17:10 50.04248 8.55971 357 ft 20 kts 249°
2026-05-05 17:10 50.04198 8.55765 352 ft 21 kts 250°
2026-05-05 17:10 50.04150 8.55561 361 ft 20 kts 249°
2026-05-05 17:10 50.04098 8.55349 359 ft 21 kts 249°
2026-05-05 17:11 50.04048 8.55133 362 ft 22 kts 250°
2026-05-05 17:11 50.03992 8.54902 363 ft 24 kts 249°
2026-05-05 17:11 50.03931 8.54646 359 ft 26 kts 250°
2026-05-05 17:11 50.03861 8.54384 359 ft 24 kts 241°
2026-05-05 17:12 50.03791 8.54188 367 ft 20 kts 249°
2026-05-05 17:12 50.03738 8.53973 363 ft 22 kts 248°
2026-05-05 17:12 50.03682 8.53738 361 ft 25 kts 250°
2026-05-05 17:12 50.03621 8.53475 365 ft 26 kts 249°
2026-05-05 17:13 50.03559 8.53218 366 ft 24 kts 250°
2026-05-05 17:13 50.03507 8.53002 366 ft 12 kts 249°
2026-05-05 17:13 50.03482 8.52907 372 ft 6 kts 247°
2026-05-05 17:13 50.03475 8.52882 373 ft 0 kts 247°
2026-05-05 17:14 50.03474 8.52877 373 ft 2 kts 246°
2026-05-05 17:15 50.03455 8.52843 375 ft 7 kts 217°
2026-05-05 17:15 50.03415 8.52822 375 ft 10 kts 191°
2026-05-05 17:15 50.03328 8.52800 373 ft 10 kts 198°
2026-05-05 17:15 50.03293 8.52760 373 ft 6 kts 228°
2026-05-05 17:16 50.03289 8.52751 373 ft 0 kts 232°
2026-05-05 17:19 50.03265 8.52695 373 ft 11 kts 238°
2026-05-05 17:19 50.03209 8.52616 372 ft 12 kts 206°
2026-05-05 17:19 50.03140 8.52598 369 ft 0 kts 180°
2026-05-05 17:19 50.03138 8.52598 369 ft 1 kts 180°
2026-05-05 17:20 50.03111 8.52598 368 ft 12 kts 180°
2026-05-05 17:20 50.02776 8.52601 367 ft 86 kts 180°
2026-05-05 17:20 50.01964 8.52608 361 ft 145 kts 179°
2026-05-05 17:20 50.00847 8.52618 714 ft 165 kts 180°
2026-05-05 17:21 49.99697 8.52633 1420 ft 166 kts 180°
2026-05-05 17:21 49.98533 8.52655 2150 ft 169 kts 180°
2026-05-05 17:21 49.97306 8.52879 2552 ft 189 kts 160°
2026-05-05 17:22 49.95357 8.56164 3297 ft 239 kts 119°
2026-05-05 17:22 49.94498 8.58564 3843 ft 260 kts 119°
2026-05-05 17:22 49.93609 8.61063 4726 ft 267 kts 119°
2026-05-05 17:22 49.92702 8.63609 5667 ft 272 kts 119°
2026-05-05 17:23 49.91793 8.66157 6607 ft 275 kts 119°
2026-05-05 17:23 49.90855 8.68775 7520 ft 279 kts 119°
2026-05-05 17:23 49.89899 8.71430 8434 ft 283 kts 119°
2026-05-05 17:23 49.88918 8.74149 9328 ft 287 kts 119°
2026-05-05 17:24 49.87949 8.76833 10173 ft 291 kts 119°
2026-05-05 17:24 49.86952 8.79600 10778 ft 296 kts 119°
2026-05-05 17:24 49.85918 8.82465 10965 ft 319 kts 119°
2026-05-05 17:24 49.84781 8.85609 11016 ft 350 kts 119°
2026-05-05 17:25 49.83557 8.88985 11370 ft 366 kts 119°
2026-05-05 17:25 49.82707 8.91326 11811 ft 371 kts 119°
2026-05-05 17:25 49.81017 8.95973 12753 ft 377 kts 119°
2026-05-05 17:25 49.79723 8.99527 13466 ft 381 kts 120°
2026-05-05 17:26 49.78413 9.03115 14152 ft 385 kts 120°
2026-05-05 17:26 49.77093 9.06743 14809 ft 389 kts 118°
2026-05-05 17:26 49.76018 9.10601 15436 ft 393 kts 108°
2026-05-05 17:26 49.75317 9.14705 16046 ft 397 kts 103°
2026-05-05 17:27 49.74664 9.18851 16649 ft 400 kts 104°
2026-05-05 17:27 49.73993 9.23056 17229 ft 403 kts 104°
2026-05-05 17:27 49.73309 9.27270 17797 ft 407 kts 104°
2026-05-05 17:27 49.72613 9.31525 18355 ft 410 kts 104°
2026-05-05 17:28 49.71911 9.35819 18875 ft 413 kts 104°
2026-05-05 17:28 49.71204 9.40144 19394 ft 417 kts 104°
2026-05-05 17:28 49.70488 9.44506 19908 ft 420 kts 104°
2026-05-05 17:28 49.69765 9.48894 20403 ft 423 kts 104°
2026-05-05 17:29 49.69036 9.53313 20888 ft 426 kts 104°
2026-05-05 17:29 49.68304 9.57757 21367 ft 429 kts 104°
2026-05-05 17:29 49.67661 9.62262 21809 ft 432 kts 98°
2026-05-05 17:29 49.67458 9.66901 22253 ft 435 kts 89°
2026-05-05 17:30 49.67746 9.71555 22676 ft 437 kts 79°
2026-05-05 17:30 49.68482 9.76128 23067 ft 440 kts 74°
2026-05-05 17:30 49.69305 9.80706 23471 ft 443 kts 74°
2026-05-05 17:30 49.70123 9.85310 23868 ft 446 kts 75°
2026-05-05 17:31 49.70932 9.89879 24252 ft 448 kts 73°
2026-05-05 17:31 49.72030 9.94394 24631 ft 450 kts 65°
2026-05-05 17:31 49.73568 9.98619 24995 ft 453 kts 56°
2026-05-05 17:31 49.75430 10.02641 25357 ft 455 kts 54°
2026-05-05 17:32 49.77266 10.06576 25700 ft 457 kts 54°
2026-05-05 17:32 49.79122 10.10575 26026 ft 460 kts 54°
2026-05-05 17:32 49.81006 10.14657 26355 ft 462 kts 54°
2026-05-05 17:32 49.82877 10.18728 26667 ft 464 kts 54°
2026-05-05 17:33 49.84745 10.22803 26980 ft 466 kts 54°
2026-05-05 17:33 49.86602 10.26863 27279 ft 468 kts 54°
2026-05-05 17:33 49.88496 10.30998 27573 ft 470 kts 54°
2026-05-05 17:33 49.90395 10.35138 27873 ft 472 kts 54°
2026-05-05 17:34 49.92299 10.39300 28190 ft 473 kts 54°
2026-05-05 17:34 49.94194 10.43454 28571 ft 472 kts 54°
2026-05-05 17:34 49.96092 10.47626 28908 ft 472 kts 54°
2026-05-05 17:35 49.99864 10.55936 29010 ft 468 kts 54°
2026-05-05 17:35 50.03471 10.64273 29008 ft 467 kts 62°
2026-05-05 17:35 50.04731 10.68926 29010 ft 467 kts 73°
2026-05-05 17:36 50.05436 10.73857 29010 ft 468 kts 83°
2026-05-05 17:36 50.05132 10.83912 29010 ft 467 kts 103°
2026-05-05 17:37 50.03166 10.93549 29008 ft 467 kts 108°
2026-05-05 17:37 50.01127 11.03152 29007 ft 468 kts 108°
2026-05-05 17:38 49.99079 11.12745 29000 ft 467 kts 108°
2026-05-05 17:38 49.97023 11.22328 28994 ft 467 kts 108°
2026-05-05 17:39 49.94983 11.31916 28995 ft 468 kts 108°
2026-05-05 17:39 49.92935 11.41568 28997 ft 468 kts 108°
2026-05-05 17:40 49.91081 11.51228 28990 ft 468 kts 105°
2026-05-05 17:40 49.89375 11.60904 28991 ft 468 kts 105°
2026-05-05 17:41 49.87908 11.70715 28991 ft 467 kts 97°
2026-05-05 17:41 49.87036 11.80713 28990 ft 468 kts 98°
2026-05-05 17:42 49.85637 11.90519 28998 ft 467 kts 112°
2026-05-05 17:42 49.84136 11.94986 28996 ft 467 kts 123°
2026-05-05 17:42 49.82122 11.98919 28983 ft 466 kts 134°
2026-05-05 17:42 49.79669 12.02196 28988 ft 466 kts 145°
2026-05-05 17:43 49.76869 12.04693 28986 ft 466 kts 156°
2026-05-05 17:43 49.70987 12.08779 28984 ft 467 kts 152°
2026-05-05 17:43 49.67979 12.10766 28986 ft 466 kts 166°
2026-05-05 17:44 49.64794 12.11755 28986 ft 465 kts 170°
2026-05-05 17:44 49.58423 12.13537 28990 ft 466 kts 170°
2026-05-05 17:45 49.52055 12.15412 28988 ft 466 kts 169°
2026-05-05 17:45 49.45659 12.17407 28989 ft 466 kts 168°
2026-05-05 17:46 49.39342 12.19379 28994 ft 466 kts 169°
2026-05-05 17:46 49.32938 12.20606 28986 ft 465 kts 184°
2026-05-05 17:47 49.26494 12.19735 28989 ft 465 kts 185°
2026-05-05 17:47 49.20054 12.18780 29010 ft 465 kts 186°
2026-05-05 17:48 49.13611 12.17817 28999 ft 465 kts 186°
2026-05-05 17:48 49.07163 12.16875 28996 ft 465 kts 185°
2026-05-05 17:49 49.00710 12.15955 28996 ft 465 kts 185°
2026-05-05 17:49 48.94258 12.15041 28997 ft 466 kts 185°
2026-05-05 17:50 48.87813 12.14115 28998 ft 466 kts 186°
2026-05-05 17:50 48.81357 12.13189 28999 ft 466 kts 185°
2026-05-05 17:50 48.78122 12.12728 28780 ft 467 kts 186°
2026-05-05 17:51 48.74879 12.12266 28514 ft 467 kts 185°
2026-05-05 17:51 48.71648 12.11810 28281 ft 467 kts 185°
2026-05-05 17:51 48.68408 12.11353 28031 ft 468 kts 185°
2026-05-05 17:51 48.65164 12.10894 27779 ft 468 kts 185°
2026-05-05 17:52 48.61917 12.10430 27531 ft 469 kts 186°
2026-05-05 17:52 48.58658 12.09965 27281 ft 470 kts 185°
2026-05-05 17:52 48.55403 12.09505 27032 ft 470 kts 185°
2026-05-05 17:52 48.52151 12.09049 26782 ft 470 kts 185°
2026-05-05 17:53 48.48891 12.08594 26532 ft 471 kts 185°
2026-05-05 17:53 48.45626 12.08135 26282 ft 472 kts 185°
2026-05-05 17:53 48.42356 12.07673 26029 ft 472 kts 185°
2026-05-05 17:53 48.39082 12.07211 25781 ft 473 kts 185°
2026-05-05 17:54 48.35811 12.06755 25530 ft 473 kts 185°